Mattoon, IL

3:47 AM CST on November 15, 2019 (GMT -0600)
Coles County Memorial

Weather History for KMTO - September, 2019

Change the Weather History Date:

Sunday, September 29, 2019

  Actual Average Record
Temperature  
Mean Temperature 79 °F 61 °F  
Max Temperature 88 °F 73 °F 98 °F (1953)
Min Temperature 69 °F 50 °F 35 °F (1967)
Degree Days  
Heating Degree Days 0 6  
Month to date heating degree days 0 60  
Since 1 July heating degree days 0 65  
Cooling Degree Days 14 2  
Month to date cooling degree days 222 116  
Year to date cooling degree days 1207 1036  
Growing Degree Days 28 (Base 50)    
Moisture  
Dew Point 67 °F    
Average Humidity 70    
Maximum Humidity 90    
Minimum Humidity 50    
Precipitation  
Precipitation 0.09 in 0.13 in 3.30 in (1955)
Month to date precipitation 1.01 2.93  
Year to date precipitation 26.14 28.83  
Sea Level Pressure  
Sea Level Pressure 30.08 in    
Wind  
Wind Speed 7 mph (SSE)    
Max Wind Speed 15 mph    
Max Gust Speed 21 mph    
Visibility 10 miles    
Events Rain , Thunderstorm    
T = Trace of Precipitation, MM = Missing Value Source: NWS Daily Summary

Daily Weather History Graph

Daily Weather History Graph

Search for Another Location

Airport or City:

Astronomy

Sep. 29, 2019 Rise Set
Actual Time 6:47 AM CDT 6:39 PM CDT
Civil Twilight 6:20 AM CDT 7:05 PM CDT
Nautical Twilight 5:49 AM CDT 7:37 PM CDT
Astronomical Twilight 5:17 AM CDT 8:08 PM CDT
Moon 7:37 AM CDT (9/29) 7:39 PM CDT (9/29)
Length of Visible Light 12h 45m
Length of Day
11h 52m
New Moon, 1% of the Moon is Illuminated
Sep 29
New Moon
Oct 5
First Quarter
Oct 13
Full
Oct 21
Last Quarter
Oct 27
New

Hourly Weather History & Observations

Time (CDT) Temp. Heat Index Dew Point Humidity Pressure Visibility Wind Dir Wind Speed Gust Speed Precip Events Conditions
12:53 AM 71.1 °F - 64.9 °F 81% 30.07 in 10.0 mi ESE 9.2 mph - N/A   Clear
1:53 AM 71.1 °F - 64.9 °F 81% 30.07 in 10.0 mi SE 9.2 mph - N/A   Clear
2:53 AM 71.1 °F - 64.9 °F 81% 30.06 in 10.0 mi ESE 9.2 mph - N/A   Clear
3:53 AM 71.1 °F - 64.9 °F 81% 30.06 in 10.0 mi SE 9.2 mph - N/A   Scattered Clouds
4:31 AM 71.1 °F - 64.9 °F 81% 30.09 in 10.0 mi SE 6.9 mph - 0.00 in Thunderstorm Thunderstorm
4:53 AM 70.0 °F - 66.0 °F 87% 30.09 in 5.0 mi NNW 4.6 mph - 0.01 in Rain Heavy Rain
5:53 AM 69.1 °F - 66.9 °F 93% 30.09 in 10.0 mi ESE 6.9 mph - 0.05 in   Overcast
6:53 AM 69.1 °F - 66.9 °F 93% 30.10 in 10.0 mi SSE 5.8 mph - 0.02 in   Overcast
7:53 AM 70.0 °F - 66.9 °F 90% 30.11 in 10.0 mi SSE 6.9 mph - 0.01 in   Overcast
8:53 AM 72.0 °F - 66.9 °F 84% 30.11 in 10.0 mi South 6.9 mph - N/A   Overcast
9:53 AM 73.0 °F - 68.0 °F 84% 30.13 in 8.0 mi SW 4.6 mph - 0.00 in   Overcast
10:53 AM 75.9 °F - 69.1 °F 79% 30.11 in 10.0 mi SSE 6.9 mph - N/A   Mostly Cloudy
11:53 AM 79.0 °F - 69.1 °F 72% 30.10 in 10.0 mi SSE 6.9 mph - N/A   Mostly Cloudy
12:53 PM 82.9 °F 86.5 °F 69.1 °F 63% 30.09 in 10.0 mi South 8.1 mph - N/A   Scattered Clouds
1:53 PM 84.0 °F 87.0 °F 68.0 °F 58% 30.07 in 10.0 mi South 13.8 mph 19.6 mph N/A   Partly Cloudy
2:53 PM 86.0 °F 90.1 °F 69.1 °F 57% 30.06 in 10.0 mi Variable 3.5 mph - N/A   Mostly Cloudy
3:53 PM 87.1 °F 89.9 °F 66.9 °F 51% 30.05 in 10.0 mi SSW 10.4 mph 18.4 mph N/A   Mostly Cloudy
4:53 PM 86.0 °F 88.8 °F 66.9 °F 53% 30.05 in 10.0 mi SSW 5.8 mph - N/A   Partly Cloudy
5:53 PM 84.9 °F 88.2 °F 68.0 °F 57% 30.05 in 10.0 mi South 5.8 mph - N/A   Mostly Cloudy
6:53 PM 80.1 °F 83.6 °F 71.1 °F 74% 30.06 in 10.0 mi Calm Calm - N/A   Mostly Cloudy
7:53 PM 78.1 °F - 71.1 °F 79% 30.07 in 10.0 mi SSE 4.6 mph - N/A   Overcast
8:53 PM 77.0 °F - 70.0 °F 79% 30.08 in 10.0 mi SE 3.5 mph - N/A   Overcast
9:53 PM 79.0 °F - 66.9 °F 66% 30.08 in 10.0 mi South 5.8 mph - N/A   Mostly Cloudy
10:53 PM 77.0 °F - 66.9 °F 71% 30.08 in 10.0 mi South 6.9 mph - N/A   Clear
11:53 PM 75.9 °F - 66.0 °F 71% 30.06 in 10.0 mi South 6.9 mph - N/A   Clear